Vacaville, CA

1:51 PM PST on January 16, 2017 (GMT -0800)
Nut Tree

Weather History for KVCB - June, 2013

Change the Weather History Date:

Friday, June 28, 2013

  Actual Average Record
Temperature  
Mean Temperature 85 °F -  
Max Temperature 105 °F 89 °F 110 °F (1956)
Min Temperature 66 °F 55 °F 46 °F (1971)
Cooling Degree Days 20    
Growing Degree Days 35 (Base 50)    
Moisture  
Dew Point 57 °F    
Average Humidity 40    
Maximum Humidity 76    
Minimum Humidity 20    
Precipitation  
Precipitation 0.00 in - - ()
Sea Level Pressure  
Sea Level Pressure 29.92 in    
Wind  
Wind Speed 3 mph (SSW)    
Max Wind Speed 15 mph    
Max Gust Speed 21 mph    
Visibility 10 miles    
Events      
Averages and records for this station are not official NWS values.
T = Trace of Precipitation, MM = Missing Value Source: NWS Daily Summary

Daily Weather History Graph

Daily Weather History Graph

Search for Another Location

Airport or City:

Trip Planner

Search our weather history database for the weather conditions in past years. The results will help you decide how hot, cold, wet, or windy it might be!

Date:

Astronomy

Jun. 28, 2013 Rise Set
Actual Time 5:46 AM PDT 8:35 PM PDT
Civil Twilight 5:14 AM PDT 9:07 PM PDT
Nautical Twilight 4:35 AM PDT 9:46 PM PDT
Astronomical Twilight 3:49 AM PDT 10:32 PM PDT
Moon No Moon Rise 11:54 AM PDT (6/28)
Length of Visible Light 15h 52m
Length of Day
14h 49m
Waning Gibbous, 65% of the Moon is Illuminated
Jun 28
Waning Gibbous
Jun 29
Last Quarter
Jul 8
New
Jul 15
First Quarter
Jul 22
Full

Hourly Weather History & Observations

Time (PDT) Temp. Heat Index Dew Point Humidity Pressure Visibility Wind Dir Wind Speed Gust Speed Precip Events Conditions
12:53 AM 71.1 °F - 59.0 °F 66% 29.99 in 10.0 mi Calm Calm - N/A   Clear
1:53 AM 68.0 °F - 57.0 °F 68% 29.98 in 10.0 mi Calm Calm - N/A   Clear
2:53 AM 66.9 °F - 57.9 °F 73% 29.97 in 10.0 mi Calm Calm - N/A   Clear
3:53 AM 66.9 °F - 59.0 °F 76% 29.97 in 10.0 mi ENE 4.6 mph - N/A   Clear
4:53 AM 66.0 °F - 57.0 °F 73% 29.98 in 10.0 mi Calm Calm - N/A   Clear
5:53 AM 66.0 °F - 57.9 °F 75% 29.98 in 10.0 mi Calm Calm - N/A   Clear
6:53 AM 75.0 °F - 62.1 °F 64% 29.98 in 10.0 mi Calm Calm - N/A   Clear
7:53 AM 82.0 °F 82.4 °F 60.1 °F 47% 29.99 in 10.0 mi Calm Calm - N/A   Clear
8:53 AM 86.0 °F 85.4 °F 59.0 °F 40% 29.98 in 10.0 mi Calm Calm - N/A   Clear
9:53 AM 88.0 °F 87.6 °F 60.1 °F 39% 29.98 in 10.0 mi SSE 4.6 mph - N/A   Clear
10:53 AM 91.9 °F 92.5 °F 62.1 °F 37% 29.96 in 10.0 mi ESE 5.8 mph - N/A   Clear
11:53 AM 96.1 °F 96.4 °F 61.0 °F 31% 29.96 in 10.0 mi Variable 6.9 mph - N/A   Clear
12:53 PM 100.0 °F 100.7 °F 60.1 °F 27% 29.94 in 10.0 mi South 8.1 mph - N/A   Clear
1:53 PM 102.0 °F 101.1 °F 57.0 °F 22% 29.91 in 10.0 mi SSW 10.4 mph - N/A   Clear
2:53 PM 104.0 °F 104.0 °F 57.9 °F 22% 29.89 in 10.0 mi SW 11.5 mph 20.7 mph N/A   Clear
3:53 PM 104.0 °F 104.0 °F 57.9 °F 22% 29.87 in 10.0 mi SW 12.7 mph - N/A   Clear
4:53 PM 104.0 °F 104.6 °F 59.0 °F 23% 29.85 in 10.0 mi WSW 15.0 mph - N/A   Clear
5:53 PM 102.9 °F 103.0 °F 57.9 °F 23% 29.84 in 10.0 mi WSW 10.4 mph - N/A   Clear
6:53 PM 100.9 °F 99.6 °F 55.9 °F 22% 29.84 in 10.0 mi WSW 8.1 mph - N/A   Clear
7:53 PM 98.1 °F - 52.0 °F 21% 29.84 in 10.0 mi WSW 5.8 mph - N/A   Clear
8:53 PM 91.9 °F - 46.9 °F 21% 29.85 in 10.0 mi Calm Calm - N/A   Clear
9:53 PM 91.0 °F - 45.0 °F 20% 29.86 in 10.0 mi Calm Calm - N/A   Clear
10:53 PM 87.1 °F - 45.0 °F 23% 29.86 in 10.0 mi Calm Calm - N/A   Clear
11:53 PM 80.1 °F - 51.1 °F 36% 29.86 in 10.0 mi Calm Calm - N/A   Clear